Regional Weather Roundup
Issued by NWS State College, PA

Home | Current Version | Previous Version | Graphics & Text | Print | Product List | Glossary Off
Versions: 1 2 3 4 5 6 7 8 9 10 11 12 13 14 15 16 17 18 19 20 21 22 23 24 25 26 27 28 29 30 31 32 33 34 35 36 37 38 39 40 41 42 43 44 45 46 47 48 49 50

000
ASUS41 KCTP 181103
RWRCTP

REGIONAL WEATHER ROUNDUP
NATIONAL WEATHER SERVICE STATE COLLEGE PA
600 AM EST THU DEC 18 2014

Note: "fair" indicates few or no clouds below 12,000 feet with no
significant weather and/or obstructions to visibility.

* = STATION THAT DOES NOT REPORT PRECIPITATION /E.G. RAIN...SNOW...ETC/
    THUNDER OR FOG.

PAZ002>004-007>009-013>016-020>023-029>032-181200-
WESTERN PENNSYLVANIA

CITY           SKY/WX    TMP DP  RH WIND       PRES   REMARKS
ERIE           CLOUDY    32  23  69 W14       30.14R
MEADVILLE      CLOUDY    27  21  78 W8        30.11R
FRANKLIN*      CLOUDY    27  19  74 W7        30.12R
NEW CASTLE       N/A     27  20  75 SW10      30.18R
BEAVER COUNTY  NOT AVBL
BUTLER*        CLOUDY    27  19  74 W7        30.16S
PITTSBURGH INT FLURRIES  28  19  69 W9        30.17R
PITTSBURGH     CLOUDY    27  16  63 W9        30.16R
INDIANA*       CLOUDY    27  23  86 W8G15     30.16R
LATROBE        NOT AVBL
WASHINGTON CO* CLOUDY    27  18  69 W5        30.20R
$$

PAZ004>006-010>012-017>019-024>028-033>037-041-042-045-046-049>053-181200-
CENTRAL PENNSYLVANIA

CITY           SKY/WX    TMP DP  RH WIND       PRES   REMARKS
BRADFORD       CLOUDY    25  20  81 W9G20     30.01S
DUBOIS         CLOUDY    25  22  88 W13       30.05S WCI  14
CLEARFIELD     FLURRIES  27  21  78 W12       30.07R
JOHNSTOWN      CLOUDY    23  17  78 W13       30.05R WCI  11
ALTOONA        CLOUDY    27  19  72 NW15G25   30.08S
STATE COLLEGE  CLOUDY    28  19  69 W12G17    30.07S
WILLIAMSPORT   CLOUDY    34  20  56 W13G21    30.04R
SELINSGROVE    CLOUDY    34  21  59 W7        30.07R
FT INDIANTOWN  CLOUDY    34  19  54 NW10G20   30.05R
CAPITAL CITY   CLOUDY    35  17  47 NW14      30.08R
HARRISBURG     MOCLDY    34  18  52 NW13G21   30.07R
YORK           CLOUDY    34  21  59 NW12      30.07R
$$

PAZ038>040-043-044-047-048-054-055-060>062-067>071-181200-
EASTERN PENNSYLVANIA

CITY           SKY/WX    TMP DP  RH WIND       PRES   REMARKS
SCRANTON       CLOUDY    33  21  61 NW17      29.98R
MOUNT POCONO   CLOUDY    29  19  66 NW17G30   29.89R
ALLENTOWN      CLOUDY    35  21  56 NW14G20   29.99R
QUAKERTOWN*    CLOUDY    32  21  64 W6        30.00R
READING        MOCLDY    35  20  54 NW13      30.03R
LANCASTER      MOCLDY    33  18  53 NW12G23   30.05R
COATESVILLE    MOSUNNY   32  21  64 W7        30.03R
POTTSTOWN      PTCLDY    32  19  58 NW10      30.02S
BLUE BELL      CLEAR     34  21  60 W5        30.01R
DOYLESTOWN     PTCLDY    31  21  66 W10       29.98S
WILLOW GROVE   NOT AVBL
NORTH PHILA    CLEAR     35  18  49 NW12      30.03R
PHILADELPHIA   PTCLDY    35  17  47 W10       30.05R
$$


USA.gov is the U.S. government's official web portal to all federal, state and local government web resources and services.